CANX-4 (40055 NORAD) Tracking and Keplerian Element Data

This shows tracking and keplerian element data for the satellite.

Feedback or suggestion? Click here.




ElementValue
Catalog40055
NameCANX-4
Epoch Orbit57086
Epoch Day35.13480162
Epoch Year2025
RAAN245.6096
Inclination98.3761
Eccentricity0.0013266
Argument of Perigee164.5951
Mean Anonmoly195.5666
Mean Motion14.7964758
Decay Rate2.598E-05
L11 40055U 14034C 25035.13480162 .00002598 00000+0 35345-3 0 9992
L22 40055 98.3761 245.6096 0013266 164.5951 195.5666 14.79647580570866



Live tracking and technical data element details for CANX-4 (NORAD 40055). CANX-4 can be tracked NOW for your location showing map with azimuth and elevation plus other details from your city location.







IsCatalogInMostPopularTable: catalog: 40055, numindb: 469
Update: records affected: 1



GetName: 40055 CANX-4

Hit Count: updated at: Thu, 15 May 2025 10:50:58 GMT